Volver al catálogo

STARLINK-36619

ActivoComunicacionesVLEO
NORAD 67645·PAYLOAD·🇺🇸 United States

Lanzado Jan 30, 2026 desde Cape Canaveral Space Force Station

Loading…

Próximos Pases (próximas 24 horas)

TLE

ActualizadoSource: CelesTrak SupGP

Época: Sep 15, 2026, 03:12 UTC

1 67645C 26020AE  26258.13381944  .00057343  00000+0  20774-2 0  2585
2 67645  43.0025 149.5902 0001362 279.9871 315.9090 15.27543471    16

Sigue STARLINK-36619 en tiempo real con AllMySat

Download on the App Store